[[{"header":{"parameterUnit":"m.s-1","parameterCategory":1,"la1":30.2991,"la2":30.254,"lo1":-89.0895,"lo2":-89.0444,"dy":0.0017,"dx":0.0017,"nx":28,"ny":28,"refTime":"2023-08-06T09:00:00:Z","depth":0,"parameterNumber":2,"parameterNumberName":"U-component_of_WINDS"},"data":[0,0,0,0,0,0,0,0,0,0,0,0,0,0,0,0,0,0,0,0,0,0,0,0,0,0,0,0,0,0,0,0,0,0,0,0,0,0,0,0,0,0,0,0,0,0,0,0,0,0,0,0,0,0,0,0,0,0,2.9787,2.9788,0,2.9868,2.9869,2.987,2.9884,2.9884,2.9883,2.9882,2.9968,2.9971,2.9974,0,0,0,0,0,0,0,0,0,0,0,0,0,2.9648,2.965,2.9787,2.9788,2.9789,2.9868,2.9869,2.987,2.9884,2.9883,2.9883,2.9882,2.9967,2.9971,2.9974,0,0,0,0,0,0,0,0,0,0,0,0,0,2.9717,2.9651,2.9786,2.9805,2.9808,2.9868,2.9869,2.987,2.9884,2.9883,2.9882,2.9881,2.9966,2.997,2.9975,3.0022,0,0,2.9988,2.999,0,0,0,0,0,0,0,0,2.9713,2.9722,2.9802,2.9804,2.9807,2.9865,2.9852,2.9921,2.9885,2.9855,2.9882,2.9881,2.9935,2.9942,2.9959,3.0026,3.003,2.9989,2.9991,2.9993,2.9994,0,0,0,0,0,0,0,2.9708,2.9718,2.9819,2.9803,2.9806,2.9811,2.982,2.9865,2.99,2.9858,2.9859,2.9868,2.9936,2.9955,2.9961,3.0031,2.9988,2.9992,2.9995,2.9997,3.0143,3.0144,0,0,0,0,0,0,2.9699,2.9714,2.9816,2.9821,2.9756,2.9814,2.9824,2.9847,2.99,2.9906,2.9869,2.9869,2.9948,2.9956,2.9965,3.0024,2.9993,2.9997,3.0,3.0142,3.0143,3.0145,0,0,0,0,0,0,2.9696,2.9708,2.9813,2.9768,2.9782,2.9818,2.9844,2.9849,2.9868,2.9908,2.9915,2.9882,2.9948,2.9958,3.0008,3.0027,2.9999,3.0003,3.014,3.0142,3.0144,3.0143,0,0,0,0,0,0,2.9692,2.9707,2.9724,2.9768,2.9784,2.9854,2.9845,2.9852,2.9875,2.9876,2.9921,2.9928,2.9948,3.0001,3.0012,3.0033,3.0007,3.0139,3.0141,3.0143,3.0141,3.0144,3.0147,0,0,0,0,0,2.9687,2.9721,2.9725,2.9737,2.9806,2.9855,2.9864,2.9885,2.9877,2.9895,2.9921,2.9927,3.0024,3.0006,3.0019,3.0041,3.0138,3.0141,3.0143,3.014,3.0144,3.0147,0,0,0,0,0,0,2.9679,2.9727,2.9732,2.9781,2.9814,2.9857,2.988,2.9888,2.9924,2.9923,2.9948,2.9959,3.0007,3.0029,3.0009,3.009,3.008,3.0086,3.0073,3.0077,3.008,3.0073,3.001,0,0,0,0,0,2.9682,2.9717,2.9758,2.9797,2.9813,2.9844,2.9866,2.9879,2.9914,2.9928,2.9958,2.9993,3.0031,3.0056,3.0093,3.0145,3.0156,3.0167,3.017,3.0172,3.0176,3.0206,3.0211,3.0154,3.0154,3.0154,0,0,2.969,2.9721,2.9741,2.9796,2.9823,2.9859,2.9855,2.9893,2.9921,2.9935,2.9982,3.0006,3.0047,3.0098,3.0122,3.0118,3.0195,3.0176,3.0177,3.018,3.0209,3.0215,3.022,3.0156,3.0156,3.0155,0,0,2.9723,2.975,2.9786,2.9813,2.9853,2.9874,2.9883,2.9926,2.9942,2.999,3.0002,3.0036,3.0101,3.013,3.0153,3.02,3.0206,3.0212,3.0226,3.0255,3.0259,3.0264,3.028,3.0286,3.0216,3.0216,3.0216,0,2.9728,2.9781,2.9803,2.9841,2.9865,2.988,2.9917,2.9943,2.9994,3.0011,3.0006,3.0089,3.0118,3.0176,3.0187,3.0206,3.0217,3.0205,3.0257,3.0261,3.0266,3.0281,3.0288,3.0216,3.0216,3.0216,3.0216,0,2.9786,2.9823,2.9847,2.9896,2.9923,2.996,2.9989,3.0015,3.0027,3.0048,3.0099,3.0134,3.0179,3.0195,3.0207,3.0255,3.0251,3.0252,3.0242,3.0271,3.0286,3.0293,3.0216,3.0216,3.0216,3.0216,0,0,2.9813,2.9874,2.9883,2.9905,2.9953,2.9982,3.0022,3.0065,3.0086,3.0122,3.0156,3.0212,3.0213,3.0239,3.0255,3.0281,3.0316,3.0278,3.0279,3.0283,3.0372,3.037,3.0377,3.0321,3.0322,3.0323,3.0368,0,2.985,2.9919,2.9941,2.9998,3.0034,3.0049,3.0084,3.0117,3.0139,3.0174,3.0199,3.0238,3.0236,3.0252,3.0278,3.0306,3.0334,3.0303,3.0353,3.0355,3.0341,3.0385,3.0384,3.0424,3.0374,3.0375,3.0376,0,2.9903,2.9939,3.0,3.0044,3.0059,3.0089,3.0132,3.0164,3.0204,3.0218,3.0249,3.0263,3.0306,3.0295,3.0355,3.0334,3.0356,3.0373,3.0375,3.038,3.0366,3.039,3.0437,3.0443,3.0386,3.0385,3.0384,0,2.9916,2.998,3.0025,3.0044,3.0097,3.0118,3.0141,3.0179,3.0204,3.0242,3.0259,3.0302,3.0325,3.0359,3.0385,3.0375,3.0443,3.0434,3.0457,3.0456,3.0469,3.0467,3.0519,3.0485,3.0485,3.0485,3.0485,0,2.9955,2.9991,3.0032,3.0059,3.0101,3.0128,3.0169,3.0193,3.0227,3.0261,3.0278,3.0309,3.0342,3.0379,3.04,3.0446,3.0457,3.0471,3.0476,3.0468,3.0467,3.0482,3.048,3.0487,3.0486,3.0486,3.0486,0,2.9976,3.0004,3.0054,3.01,3.0113,3.0142,3.0182,3.021,3.0234,3.0276,3.0288,3.0325,3.0369,3.0399,3.0455,3.0469,3.052,3.0525,3.0506,3.0508,3.0529,3.0526,3.0592,3.0602,3.0562,3.0562,3.0562,0,2.9998,3.0026,3.0076,3.0099,3.0122,3.016,3.0186,3.0214,3.0241,3.0288,3.0311,3.0356,3.0393,3.0462,3.0495,3.0539,3.0544,3.0565,3.0551,3.0543,3.0544,3.0541,3.0545,3.0566,3.0566,3.0567,3.0567,0,3.0035,3.0048,3.0084,3.0126,3.0157,3.0191,3.0226,3.0245,3.0279,3.0309,3.0353,3.0382,3.0439,3.0484,3.0531,3.0556,3.0567,3.0571,3.0579,3.0571,3.0558,3.0565,3.0511,3.0569,3.0569,3.0569,3.0569,3.0568,3.0056,3.0083,3.0122,3.0162,3.0192,3.0224,3.0253,3.0281,3.0318,3.0366,3.0382,3.0428,3.0469,3.0533,3.0559,3.0596,3.0595,3.0606,3.0608,3.061,3.061,3.0553,3.0605,3.0605,3.0605,3.0605,3.0605,0,3.0093,3.012,3.0157,3.0205,3.0237,3.0246,3.0285,3.0312,3.0352,3.0389,3.0425,3.0477,3.0521,3.0558,3.0603,3.0626,3.0633,3.0637,3.0635,3.0641,3.0609,3.0597,3.0631,3.0631,3.0631,3.0631,3.0631,3.0631,3.0116,3.0161,3.018,3.024,3.0267,3.0312,3.0334,3.0364,3.0394,3.045,3.0487,3.051,3.0548,3.0597,3.0637,3.0648,3.0663,3.0666,3.0677,3.0646,3.0643,3.064,3.063,3.067,3.067,3.0706,3.0707,3.0707]},{"header":{"parameterUnit":"m.s-1","parameterCategory":1,"la1":30.2991,"la2":30.254,"lo1":-89.0895,"lo2":-89.0444,"dy":0.0017,"dx":0.0017,"nx":28,"ny":28,"refTime":"2023-08-06T09:00:00:Z","depth":0,"parameterNumber":3,"parameterNumberName":"V-component_of_WINDS"},"data":[0,0,0,0,0,0,0,0,0,0,0,0,0,0,0,0,0,0,0,0,0,0,0,0,0,0,0,0,0,0,0,0,0,0,0,0,0,0,0,0,0,0,0,0,0,0,0,0,0,0,0,0,0,0,0,0,0,0,4.658,4.6581,0,4.6685,4.6686,4.6687,4.6732,4.6731,4.6731,4.6731,4.683,4.6833,4.6836,0,0,0,0,0,0,0,0,0,0,0,0,0,4.641,4.6413,4.658,4.6581,4.6583,4.6685,4.6686,4.6688,4.6732,4.6731,4.6731,4.6731,4.6829,4.6833,4.6836,0,0,0,0,0,0,0,0,0,0,0,0,0,4.6496,4.6414,4.658,4.6617,4.6622,4.6685,4.6686,4.6688,4.6732,4.6731,4.6731,4.6731,4.6828,4.6832,4.6836,4.6868,0,0,4.6849,4.6851,0,0,0,0,0,0,0,0,4.6491,4.6502,4.661,4.6615,4.662,4.6695,4.6663,4.6748,4.6732,4.669,4.6731,4.6731,4.6785,4.6793,4.6813,4.6872,4.6876,4.685,4.6852,4.6854,4.6855,0,0,0,0,0,0,0,4.6485,4.6498,4.6621,4.6612,4.6618,4.6626,4.6638,4.6679,4.6737,4.6693,4.6697,4.6709,4.6787,4.6808,4.6815,4.6878,4.6849,4.6853,4.6856,4.6857,4.6968,4.6968,0,0,0,0,0,0,4.6474,4.6492,4.6618,4.6625,4.6554,4.6629,4.6643,4.6671,4.6737,4.6747,4.6709,4.6711,4.6801,4.681,4.6819,4.686,4.6854,4.6858,4.686,4.6967,4.6968,4.6968,0,0,0,0,0,0,4.647,4.6485,4.6614,4.656,4.6577,4.6633,4.6664,4.6673,4.6695,4.6749,4.6759,4.6721,4.6802,4.6813,4.6856,4.6864,4.686,4.6864,4.6967,4.6968,4.6968,4.6942,0,0,0,0,0,0,4.6465,4.6483,4.6497,4.656,4.6579,4.6651,4.6665,4.6675,4.6703,4.6706,4.6762,4.6771,4.6802,4.6849,4.686,4.687,4.6867,4.6966,4.6967,4.6968,4.6943,4.6942,4.6941,0,0,0,0,0,4.6459,4.6484,4.6498,4.6513,4.6599,4.6652,4.6663,4.67,4.6703,4.6717,4.6752,4.677,4.6861,4.6853,4.6866,4.6877,4.6966,4.6967,4.6968,4.6943,4.6942,4.6941,0,0,0,0,0,0,4.6418,4.6493,4.6509,4.6556,4.6597,4.6659,4.6678,4.6698,4.6737,4.6738,4.678,4.6792,4.6831,4.6858,4.6848,4.691,4.6915,4.6918,4.6892,4.6891,4.6891,4.6883,4.687,0,0,0,0,0,4.6415,4.6455,4.6516,4.6551,4.6572,4.6621,4.6645,4.6671,4.6714,4.6731,4.6769,4.6809,4.6846,4.687,4.6908,4.6947,4.6959,4.696,4.696,4.6959,4.6961,4.6983,4.6985,4.6971,4.6971,4.6971,0,0,4.6408,4.6454,4.6476,4.6545,4.658,4.6617,4.6635,4.6674,4.6702,4.6736,4.678,4.6809,4.6855,4.6896,4.6916,4.692,4.6968,4.696,4.6959,4.6962,4.6984,4.6986,4.6987,4.6972,4.6972,4.6972,0,0,4.6416,4.6455,4.6489,4.6524,4.6578,4.6611,4.6619,4.6678,4.6699,4.6744,4.6771,4.6803,4.6867,4.69,4.6924,4.6944,4.6961,4.6954,4.6951,4.6972,4.6973,4.6974,4.6981,4.6983,4.6957,4.6956,4.6956,0,4.64,4.646,4.6502,4.6541,4.6569,4.6605,4.6639,4.667,4.6732,4.675,4.6754,4.6836,4.687,4.6919,4.6924,4.6942,4.6951,4.6948,4.697,4.6972,4.6973,4.698,4.6982,4.6955,4.6955,4.6956,4.6956,0,4.6438,4.6479,4.6499,4.6562,4.6593,4.6628,4.6674,4.6699,4.6722,4.6753,4.6797,4.6839,4.6887,4.69,4.6921,4.6952,4.6952,4.6962,4.6968,4.6973,4.698,4.6983,4.6954,4.6954,4.6954,4.6955,0,0,4.6422,4.6509,4.6516,4.6545,4.6607,4.6639,4.6674,4.6723,4.6744,4.6786,4.6816,4.687,4.688,4.6908,4.6933,4.6951,4.6964,4.6959,4.6961,4.6959,4.7,4.6992,4.6994,4.6976,4.6976,4.6977,4.6996,0,4.6438,4.6508,4.6547,4.6599,4.6637,4.6672,4.6703,4.6743,4.6773,4.6807,4.6839,4.6877,4.6887,4.6905,4.6924,4.6958,4.6973,4.6957,4.7002,4.7004,4.699,4.6998,4.699,4.7006,4.6999,4.6999,4.7,0,4.6466,4.651,4.6567,4.6626,4.6643,4.6671,4.6719,4.6752,4.6797,4.6818,4.6849,4.6875,4.6911,4.6914,4.6964,4.6953,4.6974,4.6993,4.6994,4.7,4.7002,4.7004,4.7012,4.7014,4.7004,4.7004,4.7004,0,4.645,4.6523,4.6567,4.659,4.6659,4.6678,4.6707,4.6753,4.678,4.682,4.6838,4.6881,4.6904,4.6936,4.6971,4.697,4.7018,4.7024,4.7034,4.7034,4.7043,4.7042,4.7054,4.7056,4.7056,4.7056,4.7056,0,4.6463,4.6497,4.656,4.6587,4.6625,4.6668,4.6703,4.6735,4.6775,4.6807,4.6838,4.6866,4.6911,4.6944,4.6971,4.7009,4.7019,4.7035,4.7042,4.7033,4.7031,4.7047,4.7046,4.7056,4.7056,4.7056,4.7056,0,4.6451,4.6496,4.6546,4.6608,4.6624,4.6649,4.6701,4.6727,4.6759,4.6798,4.681,4.6859,4.69,4.6938,4.6992,4.701,4.7048,4.7056,4.7033,4.7037,4.7046,4.7045,4.7069,4.7074,4.7072,4.7072,4.7072,0,4.6458,4.6485,4.655,4.6576,4.6605,4.6644,4.6673,4.6715,4.6743,4.6797,4.6816,4.686,4.6897,4.696,4.6999,4.704,4.705,4.7056,4.7056,4.7046,4.705,4.7048,4.7051,4.7055,4.7055,4.7054,4.7054,0,4.6464,4.6484,4.6526,4.6575,4.6608,4.6648,4.6688,4.6706,4.6756,4.6785,4.6829,4.6858,4.6914,4.6957,4.7002,4.7029,4.7049,4.7054,4.7059,4.7049,4.7035,4.7043,4.7031,4.7053,4.7053,4.7053,4.7053,4.7053,4.6461,4.6487,4.6538,4.6582,4.6618,4.6655,4.6683,4.6719,4.6758,4.6809,4.6831,4.6875,4.6918,4.6982,4.7009,4.7042,4.7047,4.7053,4.7055,4.7056,4.7054,4.703,4.705,4.705,4.7051,4.7051,4.7051,0,4.6469,4.6504,4.6545,4.6602,4.6637,4.6656,4.6701,4.6728,4.6767,4.6808,4.6845,4.6894,4.6936,4.6978,4.7021,4.704,4.705,4.7049,4.7048,4.7054,4.7048,4.704,4.7041,4.7041,4.7041,4.7041,4.7041,4.7041,4.6477,4.6522,4.6549,4.661,4.6644,4.669,4.6714,4.6748,4.6781,4.6836,4.6872,4.69,4.6941,4.6987,4.7025,4.7036,4.7051,4.7048,4.7061,4.7054,4.7055,4.7055,4.7048,4.705,4.705,4.7065,4.7065,4.7065]}]]